Aurora, NE

9:53 PM CST on February 24, 2017 (GMT -0600)
Aurora Municipal

Weather History for KAUH - December, 2013

Change the Weather History Date:

Friday, December 20, 2013

  Actual Average Record
Temperature  
Mean Temperature 15 °F -  
Max Temperature 20 °F 32 °F 57 °F (1966)
Min Temperature 10 °F 14 °F -17 °F (1989)
Degree Days  
Heating Degree Days 50    
Moisture  
Dew Point 9 °F    
Average Humidity 76    
Maximum Humidity 84    
Minimum Humidity 69    
Precipitation  
Precipitation 0.00 in - - ()
Sea Level Pressure  
Sea Level Pressure 29.91 in    
Wind  
Wind Speed 14 mph (NNW)    
Max Wind Speed 23 mph    
Max Gust Speed 31 mph    
Visibility 9 miles    
Events Snow    
Averages and records for this station are not official NWS values.
T = Trace of Precipitation, MM = Missing Value Source: NWS Daily Summary

Daily Weather History Graph

Daily Weather History Graph

Search for Another Location

Airport or City:

Trip Planner

Search our weather history database for the weather conditions in past years. The results will help you decide how hot, cold, wet, or windy it might be!

Date:

Astronomy

Dec. 20, 2013 Rise Set
Actual Time 7:52 AM CST 5:06 PM CST
Civil Twilight 7:21 AM CST 5:37 PM CST
Nautical Twilight 6:46 AM CST 6:12 PM CST
Astronomical Twilight 6:13 AM CST 6:46 PM CST
Moon 8:30 PM CST (12/20) 9:46 AM CST (12/20)
Length of Visible Light 10h 16m
Length of Day
9h 14m
Waning Gibbous, 90% of the Moon is Illuminated
Dec 20
Waning Gibbous
Dec 25
Last Quarter
Jan 1
New
Jan 7
First Quarter
Jan 15
Full

Hourly Weather History & Observations

Time (CST) Temp. Windchill Dew Point Humidity Pressure Visibility Wind Dir Wind Speed Gust Speed Precip Events Conditions
12:15 AM 12.2 °F -7.1 °F 8.2 °F 84% 29.92 in 3.0 mi NNW 23.0 mph 29.9 mph N/A Snow Light Snow
12:35 AM 11.8 °F -7.6 °F 7.7 °F 83% 29.92 in 4.0 mi NNW 23.0 mph 31.1 mph N/A Snow Light Snow
12:55 AM 11.8 °F -7.2 °F 7.7 °F 83% 29.92 in 2.5 mi North 21.9 mph 28.8 mph N/A Snow Light Snow
1:15 AM 11.7 °F -6.5 °F 7.2 °F 82% 29.91 in 3.0 mi North 19.6 mph 24.2 mph N/A Snow Light Snow
1:35 AM 11.3 °F -7.9 °F 6.8 °F 82% 29.91 in 3.0 mi North 21.9 mph 25.3 mph N/A Snow Light Snow
1:55 AM 10.9 °F -6.5 °F 6.6 °F 83% 29.92 in 5.0 mi North 17.3 mph 26.5 mph N/A Snow Light Snow
2:15 AM 10.9 °F -7.9 °F 6.6 °F 83% 29.93 in 4.0 mi NNW 20.7 mph 28.8 mph N/A Snow Light Snow
2:35 AM 10.9 °F -5.9 °F 6.8 °F 83% 29.93 in 7.0 mi North 16.1 mph - N/A Snow Light Snow
2:55 AM 10.9 °F -6.5 °F 6.6 °F 83% 29.94 in 7.0 mi NNW 17.3 mph - N/A Snow Light Snow
3:15 AM 10.8 °F -8.6 °F 5.9 °F 81% 29.94 in 7.0 mi North 21.9 mph 25.3 mph N/A Snow Light Snow
3:35 AM 10.4 °F -8.2 °F 5.9 °F 82% 29.95 in 7.0 mi NNW 19.6 mph - N/A Snow Light Snow
3:55 AM 10.4 °F -7.7 °F 5.9 °F 82% 29.95 in 5.0 mi NNW 18.4 mph - N/A Snow Light Snow
4:15 AM 10.4 °F -8.6 °F 5.9 °F 82% 29.95 in 7.0 mi NNW 20.7 mph 26.5 mph N/A Snow Light Snow
4:35 AM 10.2 °F -9.3 °F 5.7 °F 82% 29.96 in 7.0 mi North 21.9 mph 27.6 mph N/A Snow Light Snow
4:55 AM 10.2 °F -7.4 °F 5.7 °F 82% 29.96 in 7.0 mi NNW 17.3 mph 23.0 mph N/A Snow Light Snow
5:15 AM 10.0 °F -8.6 °F 5.4 °F 81% 29.96 in 10.0 mi NNW 19.6 mph - N/A Snow Light Snow
5:35 AM 10.0 °F -7.1 °F 5.5 °F 82% 29.95 in 7.0 mi NNW 16.1 mph - N/A Snow Light Snow
5:55 AM 10.2 °F -8.9 °F 5.4 °F 81% 29.97 in 10.0 mi NNW 20.7 mph - N/A Snow Light Snow
6:15 AM 10.2 °F -7.9 °F 5.2 °F 80% 29.98 in 10.0 mi NNW 18.4 mph 24.2 mph N/A   Overcast
6:35 AM 10.4 °F -8.6 °F 5.2 °F 79% 29.97 in 10.0 mi NNW 20.7 mph 24.2 mph N/A   Overcast
6:55 AM 10.4 °F -7.7 °F 5.0 °F 79% 29.97 in 10.0 mi North 18.4 mph 23.0 mph N/A   Overcast
7:15 AM 10.4 °F -8.2 °F 5.2 °F 79% 29.96 in 10.0 mi North 19.6 mph 25.3 mph N/A   Overcast
7:35 AM 10.6 °F -5.8 °F 5.4 °F 79% 29.97 in 10.0 mi NNW 15.0 mph - N/A   Overcast
7:55 AM 10.8 °F -6.2 °F 5.5 °F 79% 29.97 in 10.0 mi NNW 16.1 mph - N/A   Overcast
8:15 AM 10.8 °F -7.2 °F 5.2 °F 78% 29.96 in 10.0 mi North 18.4 mph 21.9 mph N/A   Overcast
8:35 AM 10.8 °F -6.7 °F 5.0 °F 78% 29.96 in 10.0 mi North 17.3 mph - N/A   Overcast
8:55 AM 11.1 °F -5.7 °F 5.4 °F 78% 29.96 in 7.0 mi NNW 16.1 mph 20.7 mph N/A   Overcast
9:15 AM 11.3 °F -4.3 °F 5.7 °F 78% 29.98 in 7.0 mi NNW 13.8 mph - N/A Snow Light Snow
9:35 AM 11.8 °F -2.3 °F 6.4 °F 79% 29.98 in 5.0 mi NNW 11.5 mph - N/A Snow Light Snow
9:55 AM 12.0 °F -4.0 °F 6.3 °F 78% 29.98 in 7.0 mi NNW 15.0 mph - N/A Snow Light Snow
10:15 AM 12.2 °F -3.7 °F 6.3 °F 77% 29.98 in 10.0 mi NNW 15.0 mph - N/A Snow Light Snow
10:35 AM 12.9 °F -0.9 °F 6.8 °F 77% 29.98 in 10.0 mi North 11.5 mph - N/A   Overcast
10:55 AM 13.5 °F -0.9 °F 7.3 °F 77% 29.97 in 10.0 mi NNW 12.7 mph - N/A   Overcast
11:15 AM 14.2 °F -0.6 °F 7.9 °F 76% 29.97 in 10.0 mi NW 13.8 mph - N/A   Overcast
11:35 AM 14.5 °F 1.1 °F 8.4 °F 77% 29.96 in 10.0 mi NNW 11.5 mph - N/A   Overcast
11:55 AM 14.9 °F 0.9 °F 8.4 °F 76% 29.94 in 10.0 mi NNW 12.7 mph - N/A   Overcast
12:15 PM 15.4 °F 3.0 °F 9.0 °F 76% 29.93 in 10.0 mi NNW 10.4 mph - N/A   Overcast
12:35 PM 16.0 °F 5.3 °F 9.3 °F 75% 29.92 in 10.0 mi NW 8.1 mph - N/A   Overcast
12:55 PM 16.7 °F 4.5 °F 9.9 °F 74% 29.91 in 10.0 mi NNW 10.4 mph - N/A   Overcast
1:15 PM 16.9 °F 5.5 °F 9.9 °F 74% 29.89 in 10.0 mi NNW 9.2 mph - N/A   Overcast
1:35 PM 17.6 °F 7.3 °F 10.4 °F 73% 29.90 in 10.0 mi NNW 8.1 mph - N/A   Overcast
1:55 PM 17.8 °F 7.5 °F 10.8 °F 74% 29.88 in 10.0 mi NNW 8.1 mph - N/A   Overcast
2:15 PM 18.5 °F 7.5 °F 11.1 °F 73% 29.87 in 10.0 mi NNW 9.2 mph - N/A   Overcast
2:35 PM 18.5 °F 8.4 °F 10.9 °F 72% 29.88 in 10.0 mi North 8.1 mph - N/A   Overcast
2:55 PM 18.9 °F 12.1 °F 11.1 °F 72% 29.89 in 10.0 mi NNW 4.6 mph - N/A   Overcast
3:15 PM 18.9 °F 13.7 °F 10.8 °F 71% 29.89 in 10.0 mi NNW 3.5 mph - N/A   Overcast
3:35 PM 19.0 °F - 10.8 °F 70% 29.89 in 10.0 mi Calm Calm - N/A   Overcast
3:55 PM 19.4 °F - 10.9 °F 70% 29.89 in 10.0 mi Calm Calm - N/A   Overcast
4:15 PM 19.4 °F - 11.1 °F 70% 29.90 in 10.0 mi Calm Calm - N/A   Overcast
4:35 PM 19.4 °F 12.8 °F 11.1 °F 70% 29.89 in 10.0 mi NNW 4.6 mph - N/A   Overcast
4:55 PM 19.8 °F - 11.3 °F 70% 29.89 in 10.0 mi Calm Calm - N/A   Overcast
5:15 PM 19.6 °F - 11.1 °F 70% 29.89 in 10.0 mi Calm Calm - N/A   Overcast
5:35 PM 19.8 °F 14.7 °F 11.3 °F 70% 29.87 in 10.0 mi North 3.5 mph - N/A   Overcast
5:55 PM 19.4 °F 14.3 °F 11.3 °F 71% 29.86 in 10.0 mi North 3.5 mph - N/A   Overcast
6:15 PM 19.4 °F 14.3 °F 11.1 °F 70% 29.86 in 10.0 mi North 3.5 mph - N/A   Overcast
6:35 PM 19.4 °F - 11.1 °F 70% 29.86 in 10.0 mi Calm Calm - N/A   Overcast
6:55 PM 19.4 °F - 10.8 °F 69% 29.86 in 10.0 mi Calm Calm - N/A   Overcast
7:15 PM 19.4 °F - 10.9 °F 70% 29.86 in 10.0 mi Calm Calm - N/A   Overcast
7:35 PM 19.8 °F - 11.1 °F 69% 29.86 in 10.0 mi Calm Calm - N/A   Overcast
7:55 PM 19.9 °F - 11.3 °F 69% 29.87 in 10.0 mi Calm Calm - N/A   Overcast
8:15 PM 20.1 °F - 11.3 °F 69% 29.86 in 10.0 mi Calm Calm - N/A   Overcast
8:35 PM 20.1 °F - 11.7 °F 70% 29.85 in 10.0 mi Calm Calm - N/A   Overcast
8:55 PM 20.1 °F - 11.5 °F 69% 29.84 in 10.0 mi Calm Calm - N/A   Overcast
9:15 PM 20.3 °F - 11.5 °F 69% 29.84 in 10.0 mi Calm Calm - N/A   Overcast
9:35 PM 20.1 °F - 11.8 °F 70% 29.84 in 10.0 mi Calm Calm - N/A   Overcast
9:55 PM 19.8 °F - 11.8 °F 71% 29.84 in 10.0 mi Calm Calm - N/A   Overcast
10:15 PM 19.4 °F - 11.8 °F 72% 29.83 in 10.0 mi Calm Calm - N/A   Overcast
10:35 PM 18.0 °F 12.7 °F 11.3 °F 75% 29.83 in 10.0 mi West 3.5 mph - N/A   Mostly Cloudy
10:55 PM 16.2 °F 10.6 °F 10.2 °F 77% 29.84 in 10.0 mi West 3.5 mph - N/A   Clear
11:15 PM 16.0 °F - 10.4 °F 79% 29.84 in 10.0 mi Calm Calm - N/A   Clear
11:35 PM 17.6 °F - 11.1 °F 76% 29.85 in 10.0 mi Calm Calm - N/A   Clear
11:55 PM 16.7 °F - 10.8 °F 77% 29.84 in 10.0 mi Calm Calm - N/A   Clear